• In Schweiz
  • Länderverzeichnis
  • Für 7 Tage
  • Wassertemperatur
  • Satellitenkarten
  • Wetterkarte
  • Widgets
  • user-avatar
    Anmelden

    Stündliche Wetter Malaya Malinovka

    Heute, 22 September, Samstag

    Zeit Temperatur Niederschläge Wind Luftdruck Luftfeuchtigkeit
    00:00 +18°C° 0 mm 4 m/S 744 mmHg 64%
    01:00 +18°C° 0 mm 4 m/S 744 mmHg 65%
    02:00 +17°C° 0 mm 4 m/S 743 mmHg 67%
    03:00 +17°C° 0 mm 4 m/S 743 mmHg 67%
    04:00 +17°C° 0 mm 4 m/S 742 mmHg 67%
    05:00 +15°C° 0 mm 5 m/S 742 mmHg 66%
    06:00 +16°C° 0 mm 5 m/S 742 mmHg 66%
    07:00 +16°C° 0 mm 5 m/S 742 mmHg 65%
    08:00 +16°C° 0 mm 5 m/S 742 mmHg 65%
    09:00 +17°C° 0.2 mm 5 m/S 742 mmHg 67%
    10:00 +17°C° 0.2 mm 5 m/S 742 mmHg 70%
    11:00 +19°C° 0.2 mm 6 m/S 743 mmHg 72%
    12:00 +16°C° 0.3 mm 5 m/S 743 mmHg 76%
    13:00 +14°C° 0.3 mm 5 m/S 743 mmHg 80%
    14:00 +13°C° 0.3 mm 5 m/S 744 mmHg 84%
    15:00 +12°C° 0.8 mm 4 m/S 744 mmHg 85%
    16:00 +12°C° 0.8 mm 4 m/S 744 mmHg 86%
    17:00 +11°C° 0.8 mm 3 m/S 745 mmHg 88%
    18:00 +11°C° 0.2 mm 3 m/S 745 mmHg 88%
    19:00 +11°C° 0.2 mm 3 m/S 745 mmHg 88%
    20:00 +11°C° 0.2 mm 3 m/S 745 mmHg 88%
    21:00 +10°C° 0 mm 3 m/S 745 mmHg 89%
    22:00 +10°C° 0 mm 3 m/S 745 mmHg 90%
    23:00 +9°C° 0 mm 3 m/S 745 mmHg 91%

    Morgen, 23 September, Sonntag

    Zeit Temperatur Niederschläge Wind Luftdruck Luftfeuchtigkeit
    00:00 +9°C° 0 mm 3 m/S 745 mmHg 92%
    01:00 +8°C° 0 mm 3 m/S 744 mmHg 92%
    02:00 +8°C° 0 mm 3 m/S 744 mmHg 93%
    03:00 +8°C° 0 mm 3 m/S 744 mmHg 93%
    04:00 +7°C° 0 mm 3 m/S 744 mmHg 93%
    05:00 +7°C° 0 mm 3 m/S 744 mmHg 93%
    06:00 +8°C° 0 mm 3 m/S 744 mmHg 90%
    07:00 +8°C° 0 mm 4 m/S 744 mmHg 87%
    08:00 +8°C° 0 mm 4 m/S 744 mmHg 84%
    09:00 +10°C° 0 mm 5 m/S 744 mmHg 76%
    10:00 +13°C° 0 mm 5 m/S 744 mmHg 69%
    11:00 +14°C° 0 mm 6 m/S 744 mmHg 62%
    12:00 +14°C° 0.3 mm 6 m/S 744 mmHg 60%
    13:00 +15°C° 0.3 mm 6 m/S 744 mmHg 59%
    14:00 +15°C° 0.3 mm 6 m/S 743 mmHg 58%
    15:00 +14°C° 0.2 mm 5 m/S 743 mmHg 61%
    16:00 +14°C° 0.2 mm 4 m/S 743 mmHg 65%
    17:00 +13°C° 0.2 mm 4 m/S 743 mmHg 69%
    18:00 +12°C° 0.1 mm 3 m/S 743 mmHg 75%
    19:00 +11°C° 0.1 mm 3 m/S 743 mmHg 80%
    20:00 +9°C° 0.1 mm 3 m/S 742 mmHg 86%
    21:00 +9°C° 0 mm 3 m/S 742 mmHg 88%
    22:00 +9°C° 0 mm 2 m/S 742 mmHg 89%
    23:00 +9°C° 0 mm 2 m/S 742 mmHg 91%

    übermorgen, 24 September, Montag

    Zeit Temperatur Niederschläge Wind Luftdruck Luftfeuchtigkeit
    00:00 +9°C° 0.3 mm 2 m/S 741 mmHg 92%
    01:00 +9°C° 0.3 mm 2 m/S 740 mmHg 92%
    02:00 +9°C° 0.3 mm 2 m/S 739 mmHg 93%
    03:00 +9°C° 1.6 mm 3 m/S 738 mmHg 94%
    04:00 +8°C° 1.6 mm 4 m/S 737 mmHg 94%
    05:00 +8°C° 1.6 mm 5 m/S 736 mmHg 95%
    06:00 +8°C° 2 mm 5 m/S 735 mmHg 95%
    07:00 +8°C° 2 mm 5 m/S 733 mmHg 94%
    08:00 +9°C° 2 mm 5 m/S 732 mmHg 94%
    09:00 +8°C° 3 mm 5 m/S 731 mmHg 94%
    10:00 +8°C° 3 mm 6 m/S 731 mmHg 94%
    11:00 +8°C° 3 mm 6 m/S 730 mmHg 93%
    12:00 +8°C° 2 mm 7 m/S 731 mmHg 91%
    13:00 +7°C° 2 mm 9 m/S 732 mmHg 88%
    14:00 +7°C° 2 mm 10 m/S 732 mmHg 85%
    15:00 +7°C° 0.2 mm 9 m/S 734 mmHg 83%
    16:00 +7°C° 0.2 mm 8 m/S 735 mmHg 82%
    17:00 +9°C° 0.2 mm 7 m/S 736 mmHg 80%
    18:00 +8°C° 0 mm 6 m/S 737 mmHg 82%
    19:00 +8°C° 0 mm 6 m/S 738 mmHg 83%
    20:00 +7°C° 0 mm 5 m/S 739 mmHg 85%
    21:00 +7°C° 0 mm 5 m/S 739 mmHg 85%
    22:00 +7°C° 0 mm 5 m/S 740 mmHg 86%
    23:00 +6°C° 0 mm 5 m/S 741 mmHg 86%

    25 September, Dienstag

    Zeit Temperatur Niederschläge Wind Luftdruck Luftfeuchtigkeit
    00:00 +5°C° 0 mm 6 m/S 741 mmHg 86%
    01:00 +4°C° 0 mm 6 m/S 742 mmHg 85%
    02:00 +4°C° 0 mm 6 m/S 743 mmHg 85%
    03:00 +3°C° 0 mm 6 m/S 744 mmHg 85%
    04:00 +3°C° 0 mm 6 m/S 744 mmHg 85%
    05:00 +3°C° 0 mm 6 m/S 745 mmHg 86%
    06:00 +3°C° 0 mm 7 m/S 745 mmHg 83%
    07:00 +3°C° 0 mm 7 m/S 746 mmHg 80%
    08:00 +4°C° 0 mm 7 m/S 747 mmHg 77%
    09:00 +5°C° 0 mm 8 m/S 747 mmHg 71%
    10:00 +6°C° 0 mm 8 m/S 748 mmHg 66%
    11:00 +7°C° 0 mm 8 m/S 748 mmHg 60%
    12:00 +7°C° 0.1 mm 8 m/S 749 mmHg 58%
    13:00 +9°C° 0.1 mm 8 m/S 749 mmHg 56%
    14:00 +9°C° 0.1 mm 8 m/S 749 mmHg 54%
    15:00 +9°C° 0.1 mm 7 m/S 750 mmHg 56%
    16:00 +8°C° 0.1 mm 6 m/S 750 mmHg 59%
    17:00 +8°C° 0.1 mm 5 m/S 751 mmHg 62%
    18:00 +7°C° 0 mm 5 m/S 751 mmHg 63%
    19:00 +6°C° 0 mm 5 m/S 752 mmHg 65%
    20:00 +5°C° 0 mm 5 m/S 753 mmHg 66%
    21:00 +5°C° 0 mm 5 m/S 753 mmHg 69%
    22:00 +4°C° 0 mm 4 m/S 754 mmHg 71%
    23:00 +4°C° 0 mm 4 m/S 754 mmHg 74%

    26 September, Mittwoch

    Zeit Temperatur Niederschläge Wind Luftdruck Luftfeuchtigkeit
    00:00 +4°C° 0 mm 4 m/S 754 mmHg 75%
    01:00 +3°C° 0 mm 4 m/S 754 mmHg 76%
    02:00 +3°C° 0 mm 4 m/S 755 mmHg 77%
    03:00 +3°C° 0 mm 4 m/S 754 mmHg 79%
    04:00 +2°C° 0 mm 5 m/S 754 mmHg 80%
    05:00 +3°C° 0 mm 5 m/S 754 mmHg 82%
    06:00 +3°C° 0 mm 6 m/S 754 mmHg 82%
    07:00 +4°C° 0 mm 6 m/S 753 mmHg 81%
    08:00 +5°C° 0 mm 7 m/S 753 mmHg 81%
    09:00 +6°C° 0 mm 7 m/S 753 mmHg 79%
    10:00 +8°C° 0 mm 7 m/S 753 mmHg 77%
    11:00 +9°C° 0 mm 7 m/S 753 mmHg 75%
    12:00 +9°C° 0.2 mm 8 m/S 752 mmHg 76%
    13:00 +9°C° 0.2 mm 8 m/S 752 mmHg 77%
    14:00 +9°C° 0.2 mm 8 m/S 751 mmHg 78%
    15:00 +9°C° 0.2 mm 8 m/S 751 mmHg 77%
    16:00 +9°C° 0.2 mm 7 m/S 750 mmHg 77%
    17:00 +8°C° 0.2 mm 7 m/S 750 mmHg 77%
    18:00 +8°C° 0.2 mm 7 m/S 750 mmHg 78%
    19:00 +6°C° 0.2 mm 7 m/S 749 mmHg 79%
    20:00 +6°C° 0.2 mm 7 m/S 749 mmHg 80%
    21:00 +6°C° 0.1 mm 7 m/S 749 mmHg 79%
    22:00 +6°C° 0.1 mm 7 m/S 748 mmHg 79%
    23:00 +6°C° 0.1 mm 8 m/S 748 mmHg 79%

    27 September, Donnerstag

    Zeit Temperatur Niederschläge Wind Luftdruck Luftfeuchtigkeit
    00:00 +6°C° 0.1 mm 8 m/S 747 mmHg 80%
    01:00 +6°C° 0.1 mm 8 m/S 747 mmHg 81%
    02:00 +6°C° 0.1 mm 8 m/S 746 mmHg 82%
    03:00 +6°C° 0 mm 8 m/S 746 mmHg 81%
    04:00 +6°C° 0 mm 7 m/S 745 mmHg 81%
    05:00 +8°C° 0 mm 7 m/S 745 mmHg 80%
    06:00 +8°C° 0.1 mm 7 m/S 745 mmHg 81%
    07:00 +8°C° 0.1 mm 7 m/S 744 mmHg 81%
    08:00 +8°C° 0.1 mm 7 m/S 744 mmHg 82%
    09:00 +8°C° 0.7 mm 7 m/S 744 mmHg 84%
    10:00 +8°C° 0.7 mm 7 m/S 744 mmHg 86%
    11:00 +7°C° 0.7 mm 8 m/S 743 mmHg 88%
    12:00 +10°C° 0 mm 8 m/S 743 mmHg 84%
    13:00 +11°C° 0 mm 8 m/S 742 mmHg 81%
    14:00 +12°C° 0 mm 8 m/S 742 mmHg 78%
    15:00 +14°C° 0 mm 7 m/S 742 mmHg 78%
    16:00 +14°C° 0 mm 7 m/S 741 mmHg 77%
    17:00 +14°C° 0 mm 7 m/S 741 mmHg 77%
    18:00 +12°C° 0 mm 7 m/S 740 mmHg 80%
    19:00 +11°C° 0 mm 7 m/S 740 mmHg 83%
    20:00 +10°C° 0 mm 8 m/S 740 mmHg 86%
    21:00 +11°C° 0 mm 8 m/S 739 mmHg 85%
    22:00 +11°C° 0 mm 8 m/S 739 mmHg 83%
    23:00 +12°C° 0 mm 8 m/S 738 mmHg 82%
    Mehr zeigen